| time (UTC) | temp C | wind direction | speed KPH | gust KPH | rain 1hr cm | rain 24hr cm | rain mn cm | humidity % | barometer mb |
| 20260510220503 | 20 | 312 | 4.8 | 16.1 | 0.00 | 0.51 | 0.00 | 40 | 1018.5 |
| 20260510220003 | 20 | 308 | 9.7 | 16.1 | 0.00 | 0.51 | 0.00 | 37 | 1018.6 |
| 20260510215503 | 20 | 308 | 6.4 | 16.1 | 0.00 | 0.51 | 0.00 | 38 | 1018.6 |
| 20260510215003 | 20 | 321 | 6.4 | 19.3 | 0.00 | 0.51 | 0.00 | 40 | 1018.7 |
| 20260510214503 | 20 | 323 | 8.0 | 19.3 | 0.00 | 0.51 | 0.00 | 37 | 1018.6 |
| 20260510214003 | 21 | 338 | 4.8 | 17.7 | 0.00 | 0.51 | 0.00 | 40 | 1018.5 |
| 20260510213503 | 21 | 346 | 3.2 | 12.9 | 0.00 | 0.51 | 0.00 | 38 | 1018.6 |
| 20260510213003 | 21 | 336 | 4.8 | 12.9 | 0.00 | 0.51 | 0.00 | 39 | 1018.6 |
| 20260510212503 | 21 | 1 | 3.2 | 12.9 | 0.00 | 0.51 | 0.00 | 40 | 1018.6 |
| 20260510212003 | 21 | 19 | 3.2 | 12.9 | 0.00 | 0.51 | 0.00 | 41 | 1018.6 |
| 20260510211503 | 21 | 351 | 3.2 | 12.9 | 0.00 | 0.51 | 0.00 | 39 | 1018.7 |
| 20260510211003 | 21 | 359 | 6.4 | 14.5 | 0.00 | 0.51 | 0.00 | 36 | 1018.7 |
| 20260510210524 | 21 | 17 | 4.8 | 14.5 | 0.00 | 0.51 | 0.00 | 40 | 1018.8 |
| 20260510210003 | 21 | 23 | 3.2 | 9.7 | 0.00 | 0.51 | 0.00 | 41 | 1018.8 |
| 20260510205503 | 21 | 34 | 4.8 | 9.7 | 0.00 | 0.51 | 0.00 | 40 | 1018.8 |
| 20260510205003 | 21 | 360 | 4.8 | 14.5 | 0.00 | 0.51 | 0.00 | 39 | 1018.9 |
| 20260510204503 | 21 | 333 | 4.8 | 14.5 | 0.00 | 0.51 | 0.00 | 39 | 1018.8 |
| 20260510204002 | 21 | 348 | 6.4 | 14.5 | 0.00 | 0.51 | 0.00 | 38 | 1018.8 |
| 20260510203503 | 21 | 354 | 6.4 | 17.7 | 0.00 | 0.51 | 0.00 | 40 | 1018.7 |
| 20260510203024 | 21 | 358 | 4.8 | 17.7 | 0.00 | 0.51 | 0.00 | 40 | 1018.6 |
| 20260510202503 | 21 | 339 | 4.8 | 16.1 | 0.00 | 0.51 | 0.00 | 41 | 1018.6 |
| 20260510202003 | 21 | 350 | 4.8 | 16.1 | 0.00 | 0.51 | 0.00 | 41 | 1018.7 |
| 20260510201503 | 21 | 346 | 4.8 | 16.1 | 0.00 | 0.51 | 0.00 | 41 | 1018.6 |
| 20260510201003 | 21 | 336 | 6.4 | 19.3 | 0.00 | 0.51 | 0.00 | 42 | 1018.6 |
| 20260510200503 | 21 | 318 | 8.0 | 19.3 | 0.00 | 0.51 | 0.00 | 40 | 1018.7 |
| 20260510200024 | 21 | 318 | 9.7 | 20.9 | 0.00 | 0.51 | 0.00 | 43 | 1018.7 |
| 20260510195524 | 21 | 358 | 6.4 | 20.9 | 0.00 | 0.51 | 0.00 | 39 | 1018.7 |
| 20260510195003 | 21 | 36 | 4.8 | 16.1 | 0.00 | 0.51 | 0.00 | 44 | 1018.8 |
| 20260510194503 | 20 | 45 | 6.4 | 16.1 | 0.00 | 0.51 | 0.00 | 47 | 1018.7 |
| 20260510194003 | 20 | 26 | 8.0 | 20.9 | 0.00 | 0.51 | 0.00 | 43 | 1018.8 |
| 20260510193503 | 20 | 359 | 9.7 | 20.9 | 0.00 | 0.51 | 0.00 | 42 | 1018.9 |
| 20260510193003 | 20 | 7 | 6.4 | 19.3 | 0.00 | 0.51 | 0.00 | 42 | 1018.8 |
| 20260510192503 | 20 | 12 | 4.8 | 11.3 | 0.00 | 0.51 | 0.00 | 43 | 1018.9 |
| 20260510192003 | 20 | 351 | 4.8 | 14.5 | 0.00 | 0.51 | 0.00 | 42 | 1019.0 |
| 20260510191503 | 20 | 2 | 6.4 | 16.1 | 0.00 | 0.51 | 0.00 | 43 | 1018.9 |
| 20260510191003 | 20 | 356 | 6.4 | 16.1 | 0.00 | 0.51 | 0.00 | 43 | 1018.8 |
| 20260510190503 | 19 | 345 | 4.8 | 16.1 | 0.00 | 0.51 | 0.00 | 46 | 1018.8 |
| 20260510190003 | 19 | 346 | 4.8 | 12.9 | 0.00 | 0.51 | 0.00 | 43 | 1018.9 |
| 20260510185503 | 18 | 351 | 6.4 | 14.5 | 0.00 | 0.51 | 0.00 | 45 | 1018.8 |
| 20260510185003 | 19 | 358 | 4.8 | 14.5 | 0.00 | 0.51 | 0.00 | 43 | 1018.8 |
| 20260510184524 | 19 | 12 | 4.8 | 14.5 | 0.00 | 0.51 | 0.00 | 45 | 1018.7 |
| 20260510184003 | 19 | 360 | 4.8 | 11.3 | 0.00 | 0.51 | 0.00 | 46 | 1018.6 |
| 20260510183503 | 19 | 35 | 4.8 | 14.5 | 0.00 | 0.51 | 0.00 | 44 | 1018.6 |
| 20260510183003 | 19 | 26 | 6.4 | 14.5 | 0.00 | 0.51 | 0.00 | 44 | 1018.7 |
| 20260510182503 | 19 | 348 | 6.4 | 14.5 | 0.00 | 0.51 | 0.00 | 48 | 1018.6 |
| 20260510182003 | 18 | 350 | 6.4 | 16.1 | 0.00 | 0.51 | 0.00 | 46 | 1018.6 |
| 20260510181503 | 18 | 1 | 8.0 | 16.1 | 0.00 | 0.51 | 0.00 | 46 | 1018.7 |
| 20260510181003 | 18 | 4 | 8.0 | 19.3 | 0.00 | 0.51 | 0.00 | 44 | 1018.5 |
| 20260510180503 | 18 | 352 | 6.4 | 19.3 | 0.00 | 0.51 | 0.00 | 47 | 1018.5 |
| 20260510180003 | 18 | 358 | 8.0 | 17.7 | 0.00 | 0.51 | 0.00 | 43 | 1018.5 |
| 20260510175524 | 19 | 13 | 9.7 | 19.3 | 0.00 | 0.51 | 0.00 | 45 | 1018.7 |
| 20260510175003 | 19 | 3 | 8.0 | 20.9 | 0.00 | 0.51 | 0.00 | 46 | 1018.7 |
| 20260510174503 | 18 | 340 | 8.0 | 20.9 | 0.00 | 0.51 | 0.00 | 44 | 1018.7 |
| 20260510174003 | 18 | 354 | 8.0 | 16.1 | 0.00 | 0.51 | 0.00 | 47 | 1018.8 |
| 20260510173524 | 18 | 1 | 6.4 | 17.7 | 0.00 | 0.51 | 0.00 | 47 | 1018.8 |
| 20260510173003 | 18 | 347 | 4.8 | 17.7 | 0.00 | 0.51 | 0.00 | 48 | 1018.8 |
| 20260510172503 | 18 | 1 | 3.2 | 11.3 | 0.00 | 0.51 | 0.00 | 47 | 1018.8 |
| 20260510172024 | 18 | 13 | 6.4 | 16.1 | 0.00 | 0.51 | 0.00 | 48 | 1019.1 |
| 20260510171503 | 18 | 9 | 8.0 | 16.1 | 0.00 | 0.51 | 0.00 | 47 | 1019.0 |
| 20260510171003 | 18 | 9 | 6.4 | 16.1 | 0.00 | 0.51 | 0.00 | 49 | 1019.1 |
| 20260510170503 | 18 | 345 | 6.4 | 16.1 | 0.00 | 0.51 | 0.00 | 51 | 1019.1 |
| 20260510170003 | 18 | 338 | 6.4 | 16.1 | 0.00 | 0.51 | 0.00 | 46 | 1019.1 |
| 20260510165503 | 18 | 354 | 6.4 | 16.1 | 0.00 | 0.51 | 0.00 | 53 | 1019.1 |
| 20260510165024 | 17 | 8 | 6.4 | 16.1 | 0.00 | 0.51 | 0.00 | 54 | 1019.2 |
| 20260510164503 | 17 | 15 | 6.4 | 14.5 | 0.00 | 0.51 | 0.00 | 55 | 1019.2 |
| 20260510164003 | 17 | 360 | 4.8 | 12.9 | 0.00 | 0.51 | 0.00 | 55 | 1019.1 |
| 20260510163503 | 17 | 359 | 4.8 | 12.9 | 0.00 | 0.51 | 0.00 | 52 | 1019.2 |
| 20260510163003 | 17 | 16 | 4.8 | 12.9 | 0.00 | 0.51 | 0.00 | 53 | 1019.2 |
| 20260510162503 | 17 | 14 | 4.8 | 12.9 | 0.00 | 0.51 | 0.00 | 55 | 1019.1 |
| 20260510162024 | 17 | 360 | 3.2 | 9.7 | 0.00 | 0.51 | 0.00 | 53 | 1019.2 |
| 20260510161524 | 17 | 347 | 4.8 | 12.9 | 0.00 | 0.51 | 0.00 | 55 | 1019.2 |
| 20260510161003 | 17 | 343 | 4.8 | 14.5 | 0.00 | 0.51 | 0.00 | 53 | 1019.3 |
| 20260510160503 | 17 | 1 | 8.0 | 19.3 | 0.00 | 0.51 | 0.00 | 54 | 1019.3 |
| 20260510160003 | 17 | 2 | 8.0 | 19.3 | 0.00 | 0.51 | 0.00 | 57 | 1019.3 |
| 20260510155503 | 16 | 333 | 4.8 | 16.1 | 0.00 | 0.51 | 0.00 | 61 | 1019.2 |
| 20260510155024 | 16 | 332 | 6.4 | 12.9 | 0.00 | 0.51 | 0.00 | 66 | 1019.2 |
| 20260510154503 | 16 | 335 | 6.4 | 12.9 | 0.00 | 0.51 | 0.00 | 67 | 1019.2 |
| 20260510154003 | 15 | 326 | 4.8 | 12.9 | 0.00 | 0.51 | 0.00 | 65 | 1019.1 |
| 20260510153503 | 15 | 326 | 4.8 | 12.9 | 0.00 | 0.51 | 0.00 | 66 | 1019.3 |
| 20260510153024 | 15 | 320 | 6.4 | 14.5 | 0.00 | 0.51 | 0.00 | 65 | 1019.2 |
| 20260510152503 | 15 | 324 | 4.8 | 14.5 | 0.00 | 0.51 | 0.00 | 65 | 1019.0 |
| 20260510152003 | 15 | 334 | 3.2 | 12.9 | 0.00 | 0.51 | 0.00 | 65 | 1018.9 |
| 20260510151503 | 14 | 338 | 3.2 | 12.9 | 0.00 | 0.51 | 0.00 | 64 | 1018.9 |
| 20260510151003 | 14 | 342 | 4.8 | 12.9 | 0.00 | 0.51 | 0.00 | 64 | 1018.8 |
| 20260510150503 | 14 | 342 | 4.8 | 12.9 | 0.00 | 0.51 | 0.00 | 65 | 1018.7 |
| 20260510150003 | 14 | 340 | 4.8 | 11.3 | 0.00 | 0.51 | 0.00 | 66 | 1018.7 |
| 20260510145503 | 14 | 332 | 4.8 | 9.7 | 0.00 | 0.51 | 0.00 | 66 | 1018.7 |
| 20260510145024 | 14 | 324 | 3.2 | 9.7 | 0.00 | 0.51 | 0.00 | 65 | 1018.7 |
| 20260510144503 | 14 | 337 | 3.2 | 8.0 | 0.00 | 0.51 | 0.00 | 67 | 1018.7 |
| 20260510144003 | 14 | 354 | 3.2 | 9.7 | 0.00 | 0.51 | 0.00 | 67 | 1018.6 |
| 20260510143503 | 14 | 347 | 3.2 | 9.7 | 0.00 | 0.51 | 0.00 | 66 | 1018.5 |
| 20260510143003 | 14 | 330 | 4.8 | 14.5 | 0.00 | 0.51 | 0.00 | 67 | 1018.3 |
| 20260510142503 | 14 | 333 | 4.8 | 14.5 | 0.00 | 0.51 | 0.00 | 65 | 1018.4 |
| 20260510142003 | 14 | 343 | 4.8 | 14.5 | 0.00 | 0.51 | 0.00 | 67 | 1018.4 |
| 20260510141503 | 14 | 343 | 3.2 | 11.3 | 0.00 | 0.51 | 0.00 | 69 | 1018.2 |
| 20260510141003 | 14 | 334 | 3.2 | 9.7 | 0.00 | 0.51 | 0.00 | 69 | 1018.2 |
| 20260510140503 | 14 | 335 | 3.2 | 9.7 | 0.00 | 0.51 | 0.00 | 69 | 1018.1 |
| 20260510140003 | 13 | 1 | 3.2 | 9.7 | 0.00 | 0.51 | 0.00 | 70 | 1017.9 |
| 20260510135503 | 13 | 14 | 4.8 | 16.1 | 0.00 | 0.51 | 0.00 | 69 | 1017.8 |
| 20260510135003 | 13 | 4 | 6.4 | 16.1 | 0.00 | 0.51 | 0.00 | 70 | 1017.8 |
| 20260510134503 | 13 | 349 | 6.4 | 12.9 | 0.00 | 0.51 | 0.00 | 69 | 1017.8 |
| 20260510134003 | 13 | 356 | 4.8 | 12.9 | 0.00 | 0.51 | 0.00 | 68 | 1017.8 |
| 20260510133503 | 13 | 357 | 4.8 | 12.9 | 0.00 | 0.51 | 0.00 | 69 | 1017.7 |
| 20260510133003 | 13 | 341 | 4.8 | 12.9 | 0.00 | 0.51 | 0.00 | 69 | 1017.8 |
| 20260510132503 | 13 | 352 | 6.4 | 16.1 | 0.00 | 0.51 | 0.00 | 69 | 1017.8 |
| 20260510132003 | 13 | 358 | 4.8 | 16.1 | 0.00 | 0.51 | 0.00 | 71 | 1017.9 |
| 20260510131503 | 13 | 341 | 4.8 | 12.9 | 0.00 | 0.51 | 0.00 | 76 | 1017.7 |
| 20260510131003 | 13 | 353 | 4.8 | 11.3 | 0.00 | 0.51 | 0.00 | 76 | 1017.6 |
| 20260510130503 | 13 | 359 | 4.8 | 14.5 | 0.00 | 0.51 | 0.00 | 80 | 1017.4 |
| 20260510130003 | 12 | 347 | 4.8 | 14.5 | 0.00 | 0.51 | 0.00 | 82 | 1017.4 |
| 20260510125503 | 12 | 343 | 3.2 | 9.7 | 0.00 | 0.51 | 0.00 | 83 | 1017.4 |
| 20260510125003 | 12 | 335 | 3.2 | 9.7 | 0.00 | 0.51 | 0.00 | 85 | 1017.3 |
| 20260510124503 | 12 | 330 | 3.2 | 9.7 | 0.00 | 0.51 | 0.00 | 86 | 1017.2 |
| 20260510124003 | 12 | 344 | 3.2 | 14.5 | 0.00 | 0.51 | 0.00 | 86 | 1017.1 |
| 20260510123503 | 11 | 349 | 3.2 | 14.5 | 0.00 | 0.51 | 0.00 | 86 | 1016.9 |
| 20260510123003 | 11 | 342 | 3.2 | 8.0 | 0.00 | 0.51 | 0.00 | 86 | 1016.8 |
| 20260510122503 | 11 | 339 | 1.6 | 8.0 | 0.00 | 0.51 | 0.00 | 86 | 1016.8 |
| 20260510122003 | 11 | 330 | 1.6 | 6.4 | 0.00 | 0.51 | 0.00 | 86 | 1016.8 |
| 20260510121503 | 11 | 312 | 1.6 | 6.4 | 0.00 | 0.51 | 0.00 | 86 | 1016.7 |
| 20260510121003 | 10 | 305 | 3.2 | 6.4 | 0.00 | 0.51 | 0.00 | 85 | 1016.7 |
| 20260510120503 | 10 | 303 | 3.2 | 6.4 | 0.00 | 0.51 | 0.00 | 85 | 1016.6 |
| 20260510120003 | 10 | 304 | 3.2 | 8.0 | 0.00 | 0.51 | 0.00 | 85 | 1016.5 |
| 20260510115524 | 10 | 305 | 3.2 | 8.0 | 0.00 | 0.51 | 0.00 | 85 | 1016.3 |
| 20260510115003 | 10 | 312 | 1.6 | 6.4 | 0.00 | 0.51 | 0.00 | 85 | 1016.3 |
| 20260510114503 | 10 | 313 | 1.6 | 4.8 | 0.00 | 0.51 | 0.00 | 85 | 1016.1 |
| 20260510114003 | 10 | 0 | 0.0 | 0.0 | 0.00 | 0.51 | 0.00 | 85 | 1016.0 |
| 20260510113503 | 10 | 0 | 0.0 | 3.2 | 0.00 | 0.51 | 0.00 | 85 | 1016.0 |
| 20260510113003 | 10 | 321 | 1.6 | 4.8 | 0.00 | 0.51 | 0.00 | 85 | 1015.7 |
| 20260510112524 | 10 | 322 | 3.2 | 6.4 | 0.00 | 0.51 | 0.00 | 85 | 1015.7 |
| 20260510112003 | 10 | 326 | 1.6 | 6.4 | 0.00 | 0.51 | 0.00 | 85 | 1015.5 |
| 20260510111503 | 10 | 327 | 1.6 | 4.8 | 0.00 | 0.51 | 0.00 | 85 | 1015.5 |
| 20260510111003 | 10 | 328 | 1.6 | 4.8 | 0.00 | 0.51 | 0.00 | 85 | 1015.3 |
| 20260510110503 | 10 | 330 | 3.2 | 4.8 | 0.00 | 0.51 | 0.00 | 85 | 1015.3 |
| 20260510110003 | 10 | 326 | 3.2 | 8.0 | 0.00 | 0.51 | 0.00 | 85 | 1015.0 |
| 20260510105524 | 10 | 324 | 3.2 | 8.0 | 0.00 | 0.51 | 0.00 | 85 | 1015.0 |
| 20260510105003 | 11 | 335 | 3.2 | 8.0 | 0.00 | 0.51 | 0.00 | 85 | 1014.9 |
| 20260510104503 | 11 | 346 | 3.2 | 6.4 | 0.00 | 0.51 | 0.00 | 84 | 1014.9 |
| 20260510104003 | 11 | 340 | 3.2 | 9.7 | 0.00 | 0.51 | 0.00 | 84 | 1014.8 |
| 20260510103503 | 11 | 336 | 3.2 | 9.7 | 0.00 | 0.51 | 0.00 | 84 | 1014.7 |
| 20260510103002 | 11 | 328 | 3.2 | 8.0 | 0.00 | 0.51 | 0.00 | 84 | 1014.7 |
| 20260510102503 | 11 | 324 | 3.2 | 8.0 | 0.00 | 0.51 | 0.00 | 84 | 1014.7 |
| 20260510102003 | 11 | 334 | 3.2 | 8.0 | 0.00 | 0.51 | 0.00 | 84 | 1014.6 |
| 20260510101503 | 11 | 340 | 1.6 | 8.0 | 0.00 | 0.51 | 0.00 | 84 | 1014.4 |
| 20260510101024 | 11 | 333 | 1.6 | 8.0 | 0.00 | 0.51 | 0.00 | 84 | 1014.2 |
| 20260510100503 | 12 | 325 | 3.2 | 8.0 | 0.00 | 0.51 | 0.00 | 84 | 1014.2 |
| 20260510100024 | 12 | 325 | 3.2 | 8.0 | 0.00 | 0.51 | 0.00 | 84 | 1014.1 |
| 20260510095503 | 12 | 332 | 3.2 | 8.0 | 0.00 | 0.51 | 0.00 | 83 | 1014.0 |
| 20260510095003 | 12 | 325 | 3.2 | 8.0 | 0.00 | 0.51 | 0.00 | 83 | 1014.0 |
| 20260510094524 | 12 | 313 | 3.2 | 8.0 | 0.00 | 0.51 | 0.00 | 83 | 1014.1 |
| 20260510094003 | 12 | 311 | 4.8 | 8.0 | 0.00 | 0.51 | 0.00 | 83 | 1014.3 |
| 20260510093524 | 12 | 311 | 3.2 | 8.0 | 0.00 | 0.51 | 0.00 | 83 | 1014.1 |
| 20260510093024 | 12 | 305 | 3.2 | 8.0 | 0.00 | 0.51 | 0.00 | 83 | 1014.1 |
| 20260510092503 | 12 | 299 | 3.2 | 8.0 | 0.00 | 0.51 | 0.00 | 83 | 1014.0 |
| 20260510092024 | 12 | 299 | 1.6 | 6.4 | 0.00 | 0.51 | 0.00 | 83 | 1013.9 |
| 20260510091524 | 12 | 300 | 1.6 | 6.4 | 0.00 | 0.51 | 0.00 | 83 | 1013.9 |
| 20260510091003 | 12 | 300 | 3.2 | 8.0 | 0.00 | 0.51 | 0.00 | 83 | 1013.9 |
| 20260510090503 | 12 | 302 | 3.2 | 8.0 | 0.00 | 0.51 | 0.00 | 83 | 1013.8 |
| 20260510090003 | 12 | 306 | 1.6 | 4.8 | 0.00 | 0.51 | 0.00 | 83 | 1013.6 |
| 20260510085524 | 12 | 308 | 3.2 | 4.8 | 0.00 | 0.51 | 0.00 | 83 | 1013.4 |
| 20260510085003 | 12 | 309 | 1.6 | 4.8 | 0.00 | 0.51 | 0.00 | 83 | 1013.3 |
| 20260510084503 | 12 | 309 | 1.6 | 4.8 | 0.00 | 0.51 | 0.00 | 83 | 1013.2 |
| 20260510084003 | 13 | 310 | 1.6 | 4.8 | 0.00 | 0.51 | 0.00 | 83 | 1013.1 |
| 20260510083503 | 13 | 310 | 1.6 | 4.8 | 0.00 | 0.51 | 0.00 | 83 | 1012.9 |
| 20260510083003 | 13 | 310 | 1.6 | 3.2 | 0.00 | 0.51 | 0.00 | 83 | 1012.8 |
| 20260510082503 | 13 | 310 | 1.6 | 3.2 | 0.00 | 0.51 | 0.00 | 83 | 1012.8 |
| 20260510082003 | 13 | 310 | 1.6 | 3.2 | 0.00 | 0.51 | 0.00 | 83 | 1012.7 |
| 20260510081503 | 13 | 311 | 1.6 | 3.2 | 0.00 | 0.51 | 0.00 | 83 | 1012.5 |
| 20260510081024 | 13 | 312 | 1.6 | 4.8 | 0.00 | 0.51 | 0.00 | 83 | 1012.5 |
| 20260510080503 | 13 | 315 | 3.2 | 8.0 | 0.00 | 0.51 | 0.00 | 83 | 1012.3 |
| 20260510080003 | 13 | 322 | 3.2 | 8.0 | 0.00 | 0.51 | 0.00 | 83 | 1012.1 |
| 20260510075503 | 13 | 338 | 3.2 | 8.0 | 0.00 | 0.51 | 0.00 | 83 | 1012.1 |
| 20260510075003 | 14 | 339 | 3.2 | 8.0 | 0.00 | 0.51 | 0.00 | 83 | 1012.0 |
| 20260510074503 | 14 | 323 | 3.2 | 8.0 | 0.00 | 0.51 | 0.00 | 83 | 1012.0 |
| 20260510074003 | 14 | 313 | 4.8 | 8.0 | 0.00 | 0.51 | 0.00 | 83 | 1012.2 |
| 20260510073503 | 14 | 316 | 3.2 | 6.4 | 0.00 | 0.51 | 0.00 | 83 | 1012.2 |
| 20260510073003 | 14 | 319 | 1.6 | 6.4 | 0.00 | 0.51 | 0.00 | 83 | 1012.2 |
| 20260510072524 | 14 | 0 | 0.0 | 0.0 | 0.00 | 0.51 | 0.00 | 83 | 1012.1 |
| 20260510072003 | 14 | 339 | 1.6 | 4.8 | 0.00 | 0.51 | 0.00 | 83 | 1012.1 |
| 20260510071503 | 14 | 339 | 1.6 | 4.8 | 0.00 | 0.51 | 0.00 | 83 | 1012.0 |
| 20260510071003 | 14 | 0 | 0.0 | 4.8 | 0.00 | 0.51 | 0.00 | 83 | 1012.0 |
| 20260510070503 | 14 | 0 | 0.0 | 0.0 | 0.00 | 0.51 | 0.00 | 83 | 1012.0 |
| 20260510070003 | 14 | 0 | 0.0 | 1.6 | 0.00 | 0.51 | 0.00 | 83 | 1012.0 |
| 20260510065503 | 14 | 0 | 0.0 | 1.6 | 0.00 | 0.51 | 0.00 | 83 | 1012.1 |
| 20260510065003 | 14 | 0 | 0.0 | 3.2 | 0.00 | 0.51 | 0.00 | 83 | 1012.1 |
| 20260510064503 | 14 | 344 | 1.6 | 3.2 | 0.00 | 0.51 | 0.00 | 83 | 1012.0 |
| 20260510064003 | 14 | 344 | 1.6 | 3.2 | 0.00 | 0.51 | 0.00 | 83 | 1012.0 |
| 20260510063524 | 14 | 0 | 0.0 | 3.2 | 0.00 | 0.51 | 0.00 | 83 | 1012.0 |
| 20260510063003 | 14 | 0 | 0.0 | 3.2 | 0.00 | 0.51 | 0.00 | 83 | 1012.1 |
| 20260510062503 | 14 | 0 | 0.0 | 3.2 | 0.00 | 0.51 | 0.00 | 83 | 1012.0 |
| 20260510062003 | 15 | 346 | 1.6 | 4.8 | 0.00 | 0.51 | 0.00 | 83 | 1012.0 |
| 20260510061503 | 15 | 347 | 1.6 | 4.8 | 0.00 | 0.51 | 0.00 | 83 | 1011.9 |
| 20260510061003 | 15 | 349 | 1.6 | 4.8 | 0.00 | 0.51 | 0.00 | 83 | 1012.0 |
| 20260510060503 | 15 | 350 | 1.6 | 4.8 | 0.00 | 0.51 | 0.00 | 83 | 1012.1 |
| 20260510060003 | 15 | 354 | 1.6 | 4.8 | 0.00 | 0.51 | 0.00 | 84 | 1012.1 |
| 20260510055503 | 15 | 357 | 1.6 | 6.4 | 0.00 | 0.51 | 0.00 | 84 | 1011.9 |
| 20260510055003 | 15 | 356 | 1.6 | 6.4 | 0.00 | 0.51 | 0.00 | 84 | 1011.8 |
| 20260510054503 | 15 | 355 | 1.6 | 4.8 | 0.00 | 0.51 | 0.00 | 84 | 1011.8 |
| 20260510054003 | 15 | 355 | 3.2 | 6.4 | 0.00 | 0.51 | 0.00 | 84 | 1011.8 |
| 20260510053524 | 15 | 2 | 3.2 | 6.4 | 0.00 | 0.51 | 0.00 | 84 | 1011.7 |
| 20260510053024 | 15 | 14 | 1.6 | 6.4 | 0.00 | 0.51 | 0.00 | 84 | 1011.5 |
| 20260510052503 | 15 | 30 | 3.2 | 9.7 | 0.00 | 0.51 | 0.00 | 84 | 1011.4 |
| 20260510052003 | 15 | 14 | 4.8 | 9.7 | 0.00 | 0.51 | 0.00 | 84 | 1011.2 |
| 20260510051503 | 15 | 353 | 3.2 | 8.0 | 0.00 | 0.51 | 0.00 | 84 | 1011.3 |
| 20260510051024 | 15 | 345 | 1.6 | 6.4 | 0.03 | 0.51 | 0.00 | 84 | 1011.5 |
| 20260510050503 | 15 | 349 | 1.6 | 6.4 | 0.05 | 0.51 | 0.00 | 84 | 1011.6 |
| 20260510050004 | 15 | 5 | 3.2 | 12.9 | 0.05 | 0.51 | 0.00 | 84 | 1011.4 |
| 20260510045503 | 15 | 11 | 3.2 | 12.9 | 0.08 | 0.51 | 0.51 | 84 | 1011.3 |
| 20260510045003 | 15 | 5 | 3.2 | 11.3 | 0.10 | 0.51 | 0.51 | 84 | 1011.0 |
| 20260510044524 | 15 | 1 | 3.2 | 6.4 | 0.10 | 0.51 | 0.51 | 84 | 1011.1 |
| 20260510044024 | 15 | 12 | 3.2 | 9.7 | 0.13 | 0.51 | 0.51 | 84 | 1011.1 |
| 20260510043503 | 15 | 39 | 3.2 | 9.7 | 0.15 | 0.51 | 0.51 | 84 | 1011.1 |
| 20260510043003 | 15 | 92 | 1.6 | 4.8 | 0.18 | 0.51 | 0.51 | 84 | 1010.9 |
| 20260510042524 | 15 | 89 | 3.2 | 9.7 | 0.23 | 0.51 | 0.51 | 84 | 1010.6 |
| 20260510042024 | 15 | 110 | 4.8 | 9.7 | 0.28 | 0.51 | 0.51 | 84 | 1010.7 |
| 20260510041503 | 15 | 128 | 3.2 | 9.7 | 0.33 | 0.51 | 0.51 | 84 | 1010.6 |
| 20260510041003 | 15 | 113 | 3.2 | 9.7 | 0.41 | 0.48 | 0.48 | 84 | 1011.1 |
| 20260510040524 | 15 | 78 | 3.2 | 9.7 | 0.43 | 0.46 | 0.46 | 84 | 1011.1 |
| 20260510040003 | 16 | 24 | 3.2 | 9.7 | 0.46 | 0.46 | 0.46 | 85 | 1011.1 |
| 20260510035503 | 16 | 47 | 3.2 | 9.7 | 0.43 | 0.43 | 0.43 | 85 | 1011.6 |
| 20260510035024 | 16 | 113 | 4.8 | 12.9 | 0.41 | 0.41 | 0.41 | 85 | 1011.4 |
| 20260510034503 | 16 | 69 | 6.4 | 16.1 | 0.41 | 0.41 | 0.41 | 85 | 1010.9 |
| 20260510034024 | 16 | 32 | 6.4 | 16.1 | 0.38 | 0.38 | 0.38 | 84 | 1011.0 |
| 20260510033503 | 16 | 357 | 6.4 | 22.5 | 0.36 | 0.36 | 0.36 | 84 | 1011.6 |
| 20260510033003 | 16 | 343 | 8.0 | 22.5 | 0.33 | 0.33 | 0.33 | 84 | 1011.7 |
| 20260510032503 | 16 | 332 | 8.0 | 22.5 | 0.28 | 0.28 | 0.28 | 84 | 1012.0 |
| 20260510032003 | 16 | 327 | 12.9 | 25.7 | 0.23 | 0.23 | 0.23 | 84 | 1011.9 |
| 20260510031503 | 16 | 318 | 14.5 | 30.6 | 0.18 | 0.18 | 0.18 | 83 | 1012.1 |
| 20260510031003 | 17 | 314 | 14.5 | 32.2 | 0.08 | 0.10 | 0.08 | 82 | 1012.1 |
| 20260510030503 | 17 | 310 | 20.9 | 48.3 | 0.03 | 0.05 | 0.03 | 81 | 1011.9 |
| 20260510030003 | 18 | 308 | 27.4 | 64.4 | 0.00 | 0.05 | 0.00 | 79 | 1011.8 |
| 20260510025503 | 18 | 304 | 24.1 | 64.4 | 0.00 | 0.08 | 0.00 | 76 | 1011.0 |
| 20260510025003 | 18 | 296 | 11.3 | 49.9 | 0.00 | 0.10 | 0.00 | 74 | 1010.4 |
| 20260510024503 | 18 | 301 | 1.6 | 8.0 | 0.00 | 0.13 | 0.00 | 73 | 1009.1 |
| 20260510024003 | 18 | 0 | 0.0 | 3.2 | 0.00 | 0.15 | 0.00 | 74 | 1008.5 |
| 20260510023503 | 18 | 0 | 0.0 | 3.2 | 0.00 | 0.18 | 0.00 | 74 | 1008.4 |
| 20260510023024 | 18 | 0 | 0.0 | 0.0 | 0.00 | 0.20 | 0.00 | 73 | 1008.2 |
| 20260510022503 | 18 | 0 | 0.0 | 0.0 | 0.00 | 0.25 | 0.00 | 73 | 1008.1 |
| 20260510022024 | 18 | 0 | 0.0 | 0.0 | 0.00 | 0.30 | 0.00 | 73 | 1008.0 |
| 20260510021503 | 18 | 0 | 0.0 | 0.0 | 0.00 | 0.38 | 0.00 | 72 | 1008.0 |
| 20260510021003 | 18 | 0 | 0.0 | 0.0 | 0.00 | 0.46 | 0.00 | 71 | 1007.9 |
| 20260510020503 | 18 | 0 | 0.0 | 0.0 | 0.00 | 0.53 | 0.00 | 71 | 1007.9 |
| 20260510020003 | 18 | 0 | 0.0 | 0.0 | 0.00 | 0.58 | 0.00 | 70 | 1007.8 |
| 20260510015503 | 18 | 0 | 0.0 | 0.0 | 0.00 | 0.64 | 0.00 | 69 | 1007.7 |
| 20260510015003 | 19 | 0 | 0.0 | 0.0 | 0.00 | 0.71 | 0.00 | 69 | 1007.7 |
| 20260510014503 | 19 | 0 | 0.0 | 0.0 | 0.00 | 0.74 | 0.00 | 69 | 1007.5 |
| 20260510014024 | 20 | 0 | 0.0 | 0.0 | 0.00 | 0.81 | 0.00 | 69 | 1007.5 |
| 20260510013503 | 20 | 0 | 0.0 | 0.0 | 0.00 | 0.86 | 0.00 | 68 | 1007.4 |
| 20260510013003 | 20 | 0 | 0.0 | 0.0 | 0.00 | 0.91 | 0.00 | 67 | 1007.3 |
| 20260510012503 | 21 | 0 | 0.0 | 0.0 | 0.00 | 0.99 | 0.00 | 65 | 1007.3 |
| 20260510012003 | 21 | 0 | 0.0 | 0.0 | 0.00 | 0.99 | 0.00 | 64 | 1007.3 |
| 20260510011503 | 21 | 0 | 0.0 | 0.0 | 0.00 | 0.99 | 0.00 | 63 | 1007.2 |
| 20260510011024 | 22 | 0 | 0.0 | 0.0 | 0.00 | 0.99 | 0.00 | 62 | 1007.3 |
| 20260510010503 | 22 | 0 | 0.0 | 0.0 | 0.00 | 0.99 | 0.00 | 60 | 1007.3 |
| 20260510010003 | 22 | 0 | 0.0 | 0.0 | 0.00 | 0.99 | 0.00 | 59 | 1007.3 |
| 20260510005503 | 23 | 0 | 0.0 | 0.0 | 0.00 | 0.99 | 0.00 | 58 | 1007.2 |
| 20260510005003 | 23 | 0 | 0.0 | 0.0 | 0.00 | 0.99 | 0.00 | 56 | 1007.2 |
| 20260510004503 | 23 | 0 | 0.0 | 0.0 | 0.00 | 0.99 | 0.00 | 55 | 1007.1 |
| 20260510003524 | 24 | 0 | 0.0 | 0.0 | 0.00 | 1.02 | 0.00 | 53 | 1007.1 |
| 20260510003003 | 25 | 0 | 0.0 | 0.0 | 0.00 | 1.02 | 0.00 | 51 | 1007.0 |
| 20260510002503 | 25 | 0 | 0.0 | 1.6 | 0.00 | 1.02 | 0.00 | 50 | 1006.9 |
| 20260510002003 | 25 | 0 | 0.0 | 1.6 | 0.00 | 1.07 | 0.00 | 50 | 1006.9 |
| 20260510001503 | 25 | 0 | 0.0 | 1.6 | 0.00 | 1.07 | 0.00 | 47 | 1006.9 |
| 20260510001003 | 25 | 0 | 0.0 | 3.2 | 0.00 | 1.09 | 0.00 | 46 | 1006.9 |
| 20260510000503 | 25 | 301 | 1.6 | 4.8 | 0.00 | 1.09 | 0.00 | 46 | 1006.8 |
| 20260510000003 | 25 | 300 | 1.6 | 4.8 | 0.00 | 1.09 | 0.00 | 45 | 1006.8 |
| 20260509235503 | 25 | 0 | 0.0 | 3.2 | 0.00 | 1.12 | 0.00 | 45 | 1006.8 |
| 20260509235003 | 25 | 299 | 1.6 | 6.4 | 0.00 | 1.12 | 0.00 | 46 | 1006.8 |
| 20260509234503 | 25 | 296 | 3.2 | 6.4 | 0.00 | 1.12 | 0.00 | 44 | 1006.8 |
| 20260509234003 | 26 | 302 | 3.2 | 8.0 | 0.00 | 1.12 | 0.00 | 46 | 1006.8 |
| 20260509233503 | 26 | 300 | 4.8 | 8.0 | 0.00 | 1.12 | 0.00 | 44 | 1006.8 |
| 20260509233024 | 26 | 289 | 4.8 | 9.7 | 0.00 | 1.12 | 0.00 | 43 | 1006.8 |
| 20260509232524 | 26 | 287 | 4.8 | 9.7 | 0.00 | 1.12 | 0.00 | 44 | 1006.8 |
| 20260509232003 | 26 | 292 | 4.8 | 12.9 | 0.00 | 1.12 | 0.00 | 42 | 1006.8 |
| 20260509231503 | 26 | 283 | 6.4 | 12.9 | 0.00 | 1.12 | 0.00 | 42 | 1006.7 |
| 20260509231003 | 26 | 278 | 6.4 | 12.9 | 0.00 | 1.12 | 0.00 | 42 | 1006.8 |
| 20260509230503 | 26 | 292 | 6.4 | 12.9 | 0.00 | 1.12 | 0.00 | 42 | 1006.7 |
| 20260509230003 | 26 | 291 | 6.4 | 12.9 | 0.00 | 1.12 | 0.00 | 43 | 1006.7 |
| 20260509225503 | 26 | 281 | 6.4 | 12.9 | 0.00 | 1.12 | 0.00 | 43 | 1006.7 |
| 20260509225003 | 26 | 283 | 6.4 | 12.9 | 0.00 | 1.12 | 0.00 | 43 | 1006.7 |
| 20260509224503 | 26 | 290 | 4.8 | 11.3 | 0.00 | 1.12 | 0.00 | 43 | 1006.7 |
| 20260509224024 | 26 | 300 | 6.4 | 12.9 | 0.00 | 1.12 | 0.00 | 43 | 1006.7 |
| 20260509223503 | 26 | 303 | 8.0 | 14.5 | 0.00 | 1.12 | 0.00 | 42 | 1006.7 |
| 20260509223003 | 26 | 298 | 8.0 | 14.5 | 0.00 | 1.12 | 0.00 | 41 | 1006.8 |
| 20260509222524 | 26 | 298 | 8.0 | 17.7 | 0.00 | 1.12 | 0.00 | 41 | 1006.8 |
| 20260509222003 | 26 | 296 | 8.0 | 17.7 | 0.00 | 1.12 | 0.00 | 41 | 1006.8 |
| 20260509221503 | 26 | 266 | 6.4 | 14.5 | 0.00 | 1.12 | 0.00 | 44 | 1006.8 |
| 20260509221003 | 26 | 270 | 6.4 | 14.5 | 0.00 | 1.12 | 0.00 | 43 | 1006.7 |